Multibeam Report for EX1204


Ship Name: Okeanos Explorer
Chief Scientist: Lobecker, Elizabeth
NOAA/OAR/OER
Source Organization: National Oceanic and Atmospheric Administration (NOAA)
Start Date: 2012-05-29
End Date: 2012-06-13


View ISO Metadata

Visit the full NCEI Bathymetry Viewer


Multibeam Bathymetry

Cruise Details

Project: Northeastern Canyons and Continental Margins Exploration
Instrument: Simrad EM302

Data Quality

Number of Files: 721
Number of Records: 1945168
BATHYMETRY DATA Quantity Percentage
Number of Beams 305973072 100%
Number of Good Beams 298838323 97.67%
Number of Zero Beams 0 0%
Number of Flagged Beams 7134749 2.33%

Navigation Totals

Total Time: 345.4193 hours
Total Track Length: 5745.4981 km
Average Speed: 16.633 km/hr (8.9811 knots)

Cruise Bounds

Northern Extent: 41.092175
Southern Extent: 37.05951
Western Extent: -74.75447
Eastern Extent: -67.51599

Limits

Minimum Sonar Depth 1.6498 Maximum Sonar Depth 7.7753
Minimum Altitude 35.1391 Maximum Altitude 3366.5842
Minimum Depth 32.6191 Maximum Depth 3079.8374

File Information

Full Resolution Bathymetry as collected (raw): 342

Files File Size Description
0001_20120529_231144_EX1204_MB.all.mb58.gz 94.80MB Kongsberg multibeam vendor format
0001_20120530_000212_EX1204_MB.all.mb58.gz 48.89MB Kongsberg multibeam vendor format
0002_20120530_005744_EX1204_MB.all.mb58.gz 101.53MB Kongsberg multibeam vendor format
0003_20120530_025743_EX1204_MB.all.mb58.gz 99.97MB Kongsberg multibeam vendor format
0004_20120530_045743_EX1204_MB.all.mb58.gz 95.50MB Kongsberg multibeam vendor format
0005_20120530_065742_EX1204_MB.all.mb58.gz 93.59MB Kongsberg multibeam vendor format
0006_20120530_085744_EX1204_MB.all.mb58.gz 53.54MB Kongsberg multibeam vendor format
0007_20120530_100645_EX1204_MB.all.mb58.gz 92.59MB Kongsberg multibeam vendor format
0008_20120530_120646_EX1204_MB.all.mb58.gz 92.15MB Kongsberg multibeam vendor format
0009_20120530_140641_EX1204_MB.all.mb58.gz 31.89MB Kongsberg multibeam vendor format
0010_20120530_144801_EX1204_MB.all.mb58.gz 13.79MB Kongsberg multibeam vendor format
0011_20120530_150545_EX1204_MB.all.mb58.gz 92.86MB Kongsberg multibeam vendor format
0012_20120530_170547_EX1204_MB.all.mb58.gz 91.63MB Kongsberg multibeam vendor format
0013_20120530_190541_EX1204_MB.all.mb58.gz 9.60MB Kongsberg multibeam vendor format
0014_20120530_191816_EX1204_MB.all.mb58.gz 14.54MB Kongsberg multibeam vendor format
0015_20120530_193714_EX1204_MB.all.mb58.gz 91.78MB Kongsberg multibeam vendor format
0016_20120530_213717_EX1204_MB.all.mb58.gz 92.02MB Kongsberg multibeam vendor format
0017_20120530_233716_EX1204_MB.all.mb58.gz 17.81MB Kongsberg multibeam vendor format
0018_20120531_000027_EX1204_MB.all.mb58.gz 10.78MB Kongsberg multibeam vendor format
0019_20120531_001416_EX1204_MB.all.mb58.gz 92.33MB Kongsberg multibeam vendor format
0020_20120531_021422_EX1204_MB.all.mb58.gz 92.07MB Kongsberg multibeam vendor format
0021_20120531_041419_EX1204_MB.all.mb58.gz 1.56MB Kongsberg multibeam vendor format
0022_20120531_041619_EX1204_MB.all.mb58.gz 15.07MB Kongsberg multibeam vendor format
0023_20120531_043543_EX1204_MB.all.mb58.gz 92.56MB Kongsberg multibeam vendor format
0024_20120531_063546_EX1204_MB.all.mb58.gz 93.32MB Kongsberg multibeam vendor format
0025_20120531_083547_EX1204_MB.all.mb58.gz 16.14MB Kongsberg multibeam vendor format
0026_20120531_085603_EX1204_MB.all.mb58.gz 95.29MB Kongsberg multibeam vendor format
0027_20120531_105607_EX1204_MB.all.mb58.gz 95.00MB Kongsberg multibeam vendor format
0028_20120531_125605_EX1204_MB.all.mb58.gz 18.67MB Kongsberg multibeam vendor format
0029_20120531_131942_EX1204_MB.all.mb58.gz 94.77MB Kongsberg multibeam vendor format
0030_20120531_151941_EX1204_MB.all.mb58.gz 95.95MB Kongsberg multibeam vendor format
0031_20120531_171941_EX1204_MB.all.mb58.gz 13.70MB Kongsberg multibeam vendor format
0032_20120531_173637_EX1204_MB.all.mb58.gz 17.05MB Kongsberg multibeam vendor format
0033_20120531_175726_EX1204_MB.all.mb58.gz 59.74MB Kongsberg multibeam vendor format
0034_20120531_191328_EX1204_MB.all.mb58.gz 91.27MB Kongsberg multibeam vendor format
0035_20120531_211326_EX1204_MB.all.mb58.gz 89.12MB Kongsberg multibeam vendor format
0036_20120531_231000_EX1204_MB.all.mb58.gz 38.72MB Kongsberg multibeam vendor format
0037_20120601_000002_EX1204_MB.all.mb58.gz 92.24MB Kongsberg multibeam vendor format
0038_20120601_020007_EX1204_MB.all.mb58.gz 92.40MB Kongsberg multibeam vendor format
0039_20120601_040001_EX1204_MB.all.mb58.gz 31.24MB Kongsberg multibeam vendor format
0040_20120601_043938_EX1204_MB.all.mb58.gz 14.03MB Kongsberg multibeam vendor format
0041_20120601_045709_EX1204_MB.all.mb58.gz 93.22MB Kongsberg multibeam vendor format
0042_20120601_065711_EX1204_MB.all.mb58.gz 92.32MB Kongsberg multibeam vendor format
0043_20120601_085708_EX1204_MB.all.mb58.gz 92.27MB Kongsberg multibeam vendor format
0044_20120601_105712_EX1204_MB.all.mb58.gz 23.16MB Kongsberg multibeam vendor format
0045_20120601_112734_EX1204_MB.all.mb58.gz 12.97MB Kongsberg multibeam vendor format
0046_20120601_114432_EX1204_MB.all.mb58.gz 91.37MB Kongsberg multibeam vendor format
0047_20120601_134434_EX1204_MB.all.mb58.gz 10.94MB Kongsberg multibeam vendor format
0048_20120601_142845_EX1204_MB.all.mb58.gz 7.57MB Kongsberg multibeam vendor format
0049_20120601_143843_EX1204_MB.all.mb58.gz 90.76MB Kongsberg multibeam vendor format
0050_20120601_163848_EX1204_MB.all.mb58.gz 22.97MB Kongsberg multibeam vendor format
0051_20120601_170905_EX1204_MB.all.mb58.gz 81.06MB Kongsberg multibeam vendor format
0052_20120601_185510_EX1204_MB.all.mb58.gz 36.48MB Kongsberg multibeam vendor format
0053_20120601_194100_EX1204_MB.all.mb58.gz 95.22MB Kongsberg multibeam vendor format
0054_20120601_214104_EX1204_MB.all.mb58.gz 78.68MB Kongsberg multibeam vendor format
0055_20120601_232255_EX1204_MB.all.mb58.gz 28.46MB Kongsberg multibeam vendor format
0056_20120602_000000_EX1204_MB.all.mb58.gz 92.75MB Kongsberg multibeam vendor format
0057_20120602_020008_EX1204_MB.all.mb58.gz 92.43MB Kongsberg multibeam vendor format
0058_20120602_040001_EX1204_MB.all.mb58.gz 18.72MB Kongsberg multibeam vendor format
0059_20120602_042434_EX1204_MB.all.mb58.gz 23.05MB Kongsberg multibeam vendor format
0060_20120602_045420_EX1204_MB.all.mb58.gz 93.90MB Kongsberg multibeam vendor format
0061_20120602_065421_EX1204_MB.all.mb58.gz 95.16MB Kongsberg multibeam vendor format
0062_20120602_085427_EX1204_MB.all.mb58.gz 94.74MB Kongsberg multibeam vendor format
0063_20120602_105422_EX1204_MB.all.mb58.gz 97.36MB Kongsberg multibeam vendor format
0064_20120602_125420_EX1204_MB.all.mb58.gz 35.73MB Kongsberg multibeam vendor format
0065_20120602_133704_EX1204_MB.all.mb58.gz 110.33MB Kongsberg multibeam vendor format
0066_20120602_153709_EX1204_MB.all.mb58.gz 114.72MB Kongsberg multibeam vendor format
0067_20120602_173704_EX1204_MB.all.mb58.gz 117.20MB Kongsberg multibeam vendor format
0068_20120602_193704_EX1204_MB.all.mb58.gz 104.89MB Kongsberg multibeam vendor format
0069_20120602_212548_EX1204_MB.all.mb58.gz 26.52MB Kongsberg multibeam vendor format
0070_20120602_215331_EX1204_MB.all.mb58.gz 120.18MB Kongsberg multibeam vendor format
0071_20120602_235332_EX1204_MB.all.mb58.gz 6.74MB Kongsberg multibeam vendor format
0072_20120603_000003_EX1204_MB.all.mb58.gz 119.09MB Kongsberg multibeam vendor format
0073_20120603_020007_EX1204_MB.all.mb58.gz 117.55MB Kongsberg multibeam vendor format
0074_20120603_040007_EX1204_MB.all.mb58.gz 21.65MB Kongsberg multibeam vendor format
0075_20120603_042150_EX1204_MB.all.mb58.gz 36.63MB Kongsberg multibeam vendor format
0076_20120603_045825_EX1204_MB.all.mb58.gz 119.22MB Kongsberg multibeam vendor format
0077_20120603_065823_EX1204_MB.all.mb58.gz 122.27MB Kongsberg multibeam vendor format
0078_20120603_085819_EX1204_MB.all.mb58.gz 124.16MB Kongsberg multibeam vendor format
0079_20120603_105824_EX1204_MB.all.mb58.gz 17.19MB Kongsberg multibeam vendor format
0080_20120603_111544_EX1204_MB.all.mb58.gz 128.72MB Kongsberg multibeam vendor format
0081_20120603_131544_EX1204_MB.all.mb58.gz 125.67MB Kongsberg multibeam vendor format
0082_20120603_151543_EX1204_MB.all.mb58.gz 114.13MB Kongsberg multibeam vendor format
0083_20120603_170811_EX1204_MB.all.mb58.gz 25.64MB Kongsberg multibeam vendor format
0084_20120603_173248_EX1204_MB.all.mb58.gz 125.62MB Kongsberg multibeam vendor format
0085_20120603_193248_EX1204_MB.all.mb58.gz 126.99MB Kongsberg multibeam vendor format
0086_20120603_213247_EX1204_MB.all.mb58.gz 91.76MB Kongsberg multibeam vendor format
0087_20120603_225809_EX1204_MB.all.mb58.gz 19.36MB Kongsberg multibeam vendor format
0088_20120603_231625_EX1204_MB.all.mb58.gz 47.60MB Kongsberg multibeam vendor format
0089_20120604_000000_EX1204_MB.all.mb58.gz 127.75MB Kongsberg multibeam vendor format
0090_20120604_020000_EX1204_MB.all.mb58.gz 129.61MB Kongsberg multibeam vendor format
0091_20120604_040000_EX1204_MB.all.mb58.gz 19.21MB Kongsberg multibeam vendor format
0092_20120604_041724_EX1204_MB.all.mb58.gz 24.32MB Kongsberg multibeam vendor format
0093_20120604_044007_EX1204_MB.all.mb58.gz 130.00MB Kongsberg multibeam vendor format
0094_20120604_064010_EX1204_MB.all.mb58.gz 126.17MB Kongsberg multibeam vendor format
0095_20120604_084009_EX1204_MB.all.mb58.gz 83.10MB Kongsberg multibeam vendor format
0096_20120604_095711_EX1204_MB.all.mb58.gz 19.35MB Kongsberg multibeam vendor format
0097_20120604_101444_EX1204_MB.all.mb58.gz 80.20MB Kongsberg multibeam vendor format
0098_20120604_112855_EX1204_MB.all.mb58.gz 93.95MB Kongsberg multibeam vendor format
0099_20120604_125620_EX1204_MB.all.mb58.gz 18.01MB Kongsberg multibeam vendor format
0100_20120604_131250_EX1204_MB.all.mb58.gz 129.96MB Kongsberg multibeam vendor format
0101_20120604_151253_EX1204_MB.all.mb58.gz 129.52MB Kongsberg multibeam vendor format
0102_20120604_171252_EX1204_MB.all.mb58.gz 4.09MB Kongsberg multibeam vendor format
0103_20120604_171645_EX1204_MB.all.mb58.gz 14.65MB Kongsberg multibeam vendor format
0104_20120604_173028_EX1204_MB.all.mb58.gz 37.50MB Kongsberg multibeam vendor format
0105_20120604_180604_EX1204_MB.all.mb58.gz 25.12MB Kongsberg multibeam vendor format
0106_20120604_182945_EX1204_MB.all.mb58.gz 9.39MB Kongsberg multibeam vendor format
0107_20120604_183828_EX1204_MB.all.mb58.gz 126.11MB Kongsberg multibeam vendor format
0108_20120604_203830_EX1204_MB.all.mb58.gz 116.38MB Kongsberg multibeam vendor format
0109_20120604_222540_EX1204_MB.all.mb58.gz 102.78MB Kongsberg multibeam vendor format
0110_20120605_000001_EX1204_MB.all.mb58.gz 14.64MB Kongsberg multibeam vendor format
0111_20120605_001401_EX1204_MB.all.mb58.gz 3.44MB Kongsberg multibeam vendor format
0112_20120605_001713_EX1204_MB.all.mb58.gz 119.24MB Kongsberg multibeam vendor format
0113_20120605_021710_EX1204_MB.all.mb58.gz 72.89MB Kongsberg multibeam vendor format
0114_20120605_035143_EX1204_MB.all.mb58.gz 197.68MB Kongsberg multibeam vendor format
0115_20120605_055143_EX1204_MB.all.mb58.gz 17.81MB Kongsberg multibeam vendor format
0116_20120605_060043_EX1204_MB.all.mb58.gz 222.20MB Kongsberg multibeam vendor format
0117_20120605_080044_EX1204_MB.all.mb58.gz 169.78MB Kongsberg multibeam vendor format
0118_20120605_093016_EX1204_MB.all.mb58.gz 24.53MB Kongsberg multibeam vendor format
0119_20120605_094246_EX1204_MB.all.mb58.gz 129.05MB Kongsberg multibeam vendor format
0120_20120605_114245_EX1204_MB.all.mb58.gz 15.58MB Kongsberg multibeam vendor format
0121_20120605_115720_EX1204_MB.all.mb58.gz 6.74MB Kongsberg multibeam vendor format
0122_20120605_120333_EX1204_MB.all.mb58.gz 127.80MB Kongsberg multibeam vendor format
0123_20120605_140333_EX1204_MB.all.mb58.gz 20.87MB Kongsberg multibeam vendor format
0124_20120605_142254_EX1204_MB.all.mb58.gz 5.45MB Kongsberg multibeam vendor format
0125_20120605_142750_EX1204_MB.all.mb58.gz 125.85MB Kongsberg multibeam vendor format
0126_20120605_162513_EX1204_MB.all.mb58.gz 6.72MB Kongsberg multibeam vendor format
0127_20120605_163129_EX1204_MB.all.mb58.gz 127.67MB Kongsberg multibeam vendor format
0128_20120605_183131_EX1204_MB.all.mb58.gz 130.50MB Kongsberg multibeam vendor format
0129_20120605_203132_EX1204_MB.all.mb58.gz 128.14MB Kongsberg multibeam vendor format
0130_20120605_223132_EX1204_MB.all.mb58.gz 22.18MB Kongsberg multibeam vendor format
0131_20120605_225304_EX1204_MB.all.mb58.gz 70.45MB Kongsberg multibeam vendor format
0132_20120606_000002_EX1204_MB.all.mb58.gz 130.71MB Kongsberg multibeam vendor format
0133_20120606_020001_EX1204_MB.all.mb58.gz 109.98MB Kongsberg multibeam vendor format
0134_20120606_034248_EX1204_MB.all.mb58.gz 9.92MB Kongsberg multibeam vendor format
0135_20120606_035200_EX1204_MB.all.mb58.gz 127.33MB Kongsberg multibeam vendor format
0136_20120606_055200_EX1204_MB.all.mb58.gz 3.70MB Kongsberg multibeam vendor format
0137_20120606_055528_EX1204_MB.all.mb58.gz 13.08MB Kongsberg multibeam vendor format
0138_20120606_060745_EX1204_MB.all.mb58.gz 126.52MB Kongsberg multibeam vendor format
0139_20120606_080745_EX1204_MB.all.mb58.gz 126.64MB Kongsberg multibeam vendor format
0140_20120606_100745_EX1204_MB.all.mb58.gz 29.59MB Kongsberg multibeam vendor format
0141_20120606_103536_EX1204_MB.all.mb58.gz 9.15MB Kongsberg multibeam vendor format
0142_20120606_104413_EX1204_MB.all.mb58.gz 239.43MB Kongsberg multibeam vendor format
0143_20120606_124414_EX1204_MB.all.mb58.gz 147.42MB Kongsberg multibeam vendor format
0144_20120606_135416_EX1204_MB.all.mb58.gz 26.21MB Kongsberg multibeam vendor format
0145_20120606_140823_EX1204_MB.all.mb58.gz 226.54MB Kongsberg multibeam vendor format
0146_20120606_160822_EX1204_MB.all.mb58.gz 122.62MB Kongsberg multibeam vendor format
0147_20120606_172213_EX1204_MB.all.mb58.gz 4.77MB Kongsberg multibeam vendor format
0148_20120606_172636_EX1204_MB.all.mb58.gz 3.52MB Kongsberg multibeam vendor format
0149_20120606_172953_EX1204_MB.all.mb58.gz 126.25MB Kongsberg multibeam vendor format
0150_20120606_192953_EX1204_MB.all.mb58.gz 101.53MB Kongsberg multibeam vendor format
0151_20120606_210617_EX1204_MB.all.mb58.gz 33.17MB Kongsberg multibeam vendor format
0152_20120606_213701_EX1204_MB.all.mb58.gz 126.71MB Kongsberg multibeam vendor format
0153_20120606_233605_EX1204_MB.all.mb58.gz 25.61MB Kongsberg multibeam vendor format
0154_20120607_000017_EX1204_MB.all.mb58.gz 61.33MB Kongsberg multibeam vendor format
0155_20120607_005746_EX1204_MB.all.mb58.gz 9.99MB Kongsberg multibeam vendor format
0156_20120607_010711_EX1204_MB.all.mb58.gz 126.98MB Kongsberg multibeam vendor format
0157_20120607_030711_EX1204_MB.all.mb58.gz 77.18MB Kongsberg multibeam vendor format
0158_20120607_041955_EX1204_MB.all.mb58.gz 20.49MB Kongsberg multibeam vendor format
0159_20120607_043852_EX1204_MB.all.mb58.gz 128.20MB Kongsberg multibeam vendor format
0160_20120607_063852_EX1204_MB.all.mb58.gz 63.02MB Kongsberg multibeam vendor format
0161_20120607_073819_EX1204_MB.all.mb58.gz 10.41MB Kongsberg multibeam vendor format
0162_20120607_074804_EX1204_MB.all.mb58.gz 126.33MB Kongsberg multibeam vendor format
0163_20120607_094804_EX1204_MB.all.mb58.gz 10.67MB Kongsberg multibeam vendor format
0164_20120607_095808_EX1204_MB.all.mb58.gz 13.55MB Kongsberg multibeam vendor format
0165_20120607_101040_EX1204_MB.all.mb58.gz 127.12MB Kongsberg multibeam vendor format
0166_20120607_121041_EX1204_MB.all.mb58.gz 115.40MB Kongsberg multibeam vendor format
0167_20120607_141041_EX1204_MB.all.mb58.gz 9.87MB Kongsberg multibeam vendor format
0168_20120607_142131_EX1204_MB.all.mb58.gz 106.24MB Kongsberg multibeam vendor format
0169_20120607_162131_EX1204_MB.all.mb58.gz 106.21MB Kongsberg multibeam vendor format
0170_20120607_182132_EX1204_MB.all.mb58.gz 101.19MB Kongsberg multibeam vendor format
0171_20120607_201525_EX1204_MB.all.mb58.gz 28.01MB Kongsberg multibeam vendor format
0172_20120607_204545_EX1204_MB.all.mb58.gz 107.60MB Kongsberg multibeam vendor format
0173_20120607_224431_EX1204_MB.all.mb58.gz 68.10MB Kongsberg multibeam vendor format
0174_20120608_000019_EX1204_MB.all.mb58.gz 26.29MB Kongsberg multibeam vendor format
0175_20120608_002925_EX1204_MB.all.mb58.gz 60.59MB Kongsberg multibeam vendor format
0176_20120608_013551_EX1204_MB.all.mb58.gz 108.93MB Kongsberg multibeam vendor format
0177_20120608_033554_EX1204_MB.all.mb58.gz 57.31MB Kongsberg multibeam vendor format
0178_20120608_043842_EX1204_MB.all.mb58.gz 23.60MB Kongsberg multibeam vendor format
0179_20120608_050313_EX1204_MB.all.mb58.gz 109.74MB Kongsberg multibeam vendor format
0180_20120608_070100_EX1204_MB.all.mb58.gz 33.80MB Kongsberg multibeam vendor format
0181_20120608_073555_EX1204_MB.all.mb58.gz 85.73MB Kongsberg multibeam vendor format
0182_20120608_090213_EX1204_MB.all.mb58.gz 84.23MB Kongsberg multibeam vendor format
0183_20120608_102151_EX1204_MB.all.mb58.gz 5.45MB Kongsberg multibeam vendor format
0184_20120608_102704_EX1204_MB.all.mb58.gz 165.42MB Kongsberg multibeam vendor format
0185_20120608_113855_EX1204_MB.all.mb58.gz 32.25MB Kongsberg multibeam vendor format
0186_20120608_114716_EX1204_MB.all.mb58.gz 164.98MB Kongsberg multibeam vendor format
0187_20120608_123657_EX1204_MB.all.mb58.gz 41.45MB Kongsberg multibeam vendor format
0188_20120608_125554_EX1204_MB.all.mb58.gz 137.61MB Kongsberg multibeam vendor format
0189_20120608_133641_EX1204_MB.all.mb58.gz 36.88MB Kongsberg multibeam vendor format
0190_20120608_134609_EX1204_MB.all.mb58.gz 231.70MB Kongsberg multibeam vendor format
0191_20120608_154612_EX1204_MB.all.mb58.gz 11.11MB Kongsberg multibeam vendor format
0192_20120608_155732_EX1204_MB.all.mb58.gz 43.11MB Kongsberg multibeam vendor format
0193_20120608_163853_EX1204_MB.all.mb58.gz 81.95MB Kongsberg multibeam vendor format
0194_20120608_175835_EX1204_MB.all.mb58.gz 85.53MB Kongsberg multibeam vendor format
0195_20120608_192058_EX1204_MB.all.mb58.gz 86.09MB Kongsberg multibeam vendor format
0196_20120608_204107_EX1204_MB.all.mb58.gz 127.28MB Kongsberg multibeam vendor format
0197_20120608_224106_EX1204_MB.all.mb58.gz 90.39MB Kongsberg multibeam vendor format
0198_20120609_000001_EX1204_MB.all.mb58.gz 335.96MB Kongsberg multibeam vendor format
0199_20120609_020000_EX1204_MB.all.mb58.gz 78.46MB Kongsberg multibeam vendor format
0200_20120609_023202_EX1204_MB.all.mb58.gz 26.99MB Kongsberg multibeam vendor format
0201_20120609_025643_EX1204_MB.all.mb58.gz 11.00MB Kongsberg multibeam vendor format
0202_20120609_030728_EX1204_MB.all.mb58.gz 17.98MB Kongsberg multibeam vendor format
0203_20120609_032426_EX1204_MB.all.mb58.gz 119.28MB Kongsberg multibeam vendor format
0204_20120609_052435_EX1204_MB.all.mb58.gz 41.93MB Kongsberg multibeam vendor format
0205_20120609_061005_EX1204_MB.all.mb58.gz 77.31MB Kongsberg multibeam vendor format
0206_20120609_073454_EX1204_MB.all.mb58.gz 17.45MB Kongsberg multibeam vendor format
0207_20120609_075349_EX1204_MB.all.mb58.gz 79.56MB Kongsberg multibeam vendor format
0208_20120609_091938_EX1204_MB.all.mb58.gz 19.83MB Kongsberg multibeam vendor format
0209_20120609_094036_EX1204_MB.all.mb58.gz 65.37MB Kongsberg multibeam vendor format
0210_20120609_105027_EX1204_MB.all.mb58.gz 18.86MB Kongsberg multibeam vendor format
0211_20120609_110917_EX1204_MB.all.mb58.gz 67.45MB Kongsberg multibeam vendor format
0212_20120609_121931_EX1204_MB.all.mb58.gz 16.73MB Kongsberg multibeam vendor format
0213_20120609_123613_EX1204_MB.all.mb58.gz 86.77MB Kongsberg multibeam vendor format
0214_20120609_140033_EX1204_MB.all.mb58.gz 8.98MB Kongsberg multibeam vendor format
0215_20120609_140901_EX1204_MB.all.mb58.gz 74.10MB Kongsberg multibeam vendor format
0216_20120609_151946_EX1204_MB.all.mb58.gz 13.17MB Kongsberg multibeam vendor format
0217_20120609_153209_EX1204_MB.all.mb58.gz 74.71MB Kongsberg multibeam vendor format
0218_20120609_164401_EX1204_MB.all.mb58.gz 14.95MB Kongsberg multibeam vendor format
0219_20120609_165324_EX1204_MB.all.mb58.gz 81.58MB Kongsberg multibeam vendor format
0220_20120609_175510_EX1204_MB.all.mb58.gz 8.54MB Kongsberg multibeam vendor format
0221_20120609_180303_EX1204_MB.all.mb58.gz 103.67MB Kongsberg multibeam vendor format
0222_20120609_190912_EX1204_MB.all.mb58.gz 98.31MB Kongsberg multibeam vendor format
0223_20120609_200449_EX1204_MB.all.mb58.gz 33.44MB Kongsberg multibeam vendor format
0224_20120609_202042_EX1204_MB.all.mb58.gz 57.39MB Kongsberg multibeam vendor format
0225_20120609_205255_EX1204_MB.all.mb58.gz 17.54MB Kongsberg multibeam vendor format
0226_20120609_205932_EX1204_MB.all.mb58.gz 43.82MB Kongsberg multibeam vendor format
0227_20120609_212242_EX1204_MB.all.mb58.gz 41.90MB Kongsberg multibeam vendor format
0228_20120609_213844_EX1204_MB.all.mb58.gz 31.18MB Kongsberg multibeam vendor format
0229_20120609_215739_EX1204_MB.all.mb58.gz 12.47MB Kongsberg multibeam vendor format
0230_20120609_220349_EX1204_MB.all.mb58.gz 24.55MB Kongsberg multibeam vendor format
0231_20120609_221735_EX1204_MB.all.mb58.gz 17.51MB Kongsberg multibeam vendor format
0232_20120609_222418_EX1204_MB.all.mb58.gz 31.33MB Kongsberg multibeam vendor format
0233_20120609_224007_EX1204_MB.all.mb58.gz 20.65MB Kongsberg multibeam vendor format
0234_20120609_224803_EX1204_MB.all.mb58.gz 20.67MB Kongsberg multibeam vendor format
0235_20120609_225851_EX1204_MB.all.mb58.gz 15.02MB Kongsberg multibeam vendor format
0236_20120609_230428_EX1204_MB.all.mb58.gz 31.98MB Kongsberg multibeam vendor format
0237_20120609_232032_EX1204_MB.all.mb58.gz 111.59MB Kongsberg multibeam vendor format
0238_20120610_000001_EX1204_MB.all.mb58.gz 153.75MB Kongsberg multibeam vendor format
0239_20120610_020004_EX1204_MB.all.mb58.gz 90.66MB Kongsberg multibeam vendor format
0240_20120610_033709_EX1204_MB.all.mb58.gz 107.49MB Kongsberg multibeam vendor format
0241_20120610_053708_EX1204_MB.all.mb58.gz 18.66MB Kongsberg multibeam vendor format
0242_20120610_055723_EX1204_MB.all.mb58.gz 109.41MB Kongsberg multibeam vendor format
0243_20120610_075726_EX1204_MB.all.mb58.gz 26.81MB Kongsberg multibeam vendor format
0244_20120610_082539_EX1204_MB.all.mb58.gz 109.40MB Kongsberg multibeam vendor format
0245_20120610_102341_EX1204_MB.all.mb58.gz 17.41MB Kongsberg multibeam vendor format
0246_20120610_104133_EX1204_MB.all.mb58.gz 114.05MB Kongsberg multibeam vendor format
0247_20120610_124138_EX1204_MB.all.mb58.gz 25.47MB Kongsberg multibeam vendor format
0248_20120610_130538_EX1204_MB.all.mb58.gz 119.40MB Kongsberg multibeam vendor format
0249_20120610_150539_EX1204_MB.all.mb58.gz 65.40MB Kongsberg multibeam vendor format
0250_20120610_161108_EX1204_MB.all.mb58.gz 13.47MB Kongsberg multibeam vendor format
0251_20120610_162442_EX1204_MB.all.mb58.gz 74.72MB Kongsberg multibeam vendor format
0252_20120610_173740_EX1204_MB.all.mb58.gz 106.20MB Kongsberg multibeam vendor format
0253_20120610_192304_EX1204_MB.all.mb58.gz 10.26MB Kongsberg multibeam vendor format
0254_20120610_193248_EX1204_MB.all.mb58.gz 123.17MB Kongsberg multibeam vendor format
0255_20120610_213246_EX1204_MB.all.mb58.gz 69.00MB Kongsberg multibeam vendor format
0256_20120610_224007_EX1204_MB.all.mb58.gz 14.97MB Kongsberg multibeam vendor format
0257_20120610_225414_EX1204_MB.all.mb58.gz 68.99MB Kongsberg multibeam vendor format
0258_20120611_000019_EX1204_MB.all.mb58.gz 125.16MB Kongsberg multibeam vendor format
0259_20120611_014540_EX1204_MB.all.mb58.gz 235.81MB Kongsberg multibeam vendor format
0260_20120611_034541_EX1204_MB.all.mb58.gz 110.49MB Kongsberg multibeam vendor format
0261_20120611_051818_EX1204_MB.all.mb58.gz 28.29MB Kongsberg multibeam vendor format
0262_20120611_054445_EX1204_MB.all.mb58.gz 182.75MB Kongsberg multibeam vendor format
0263_20120611_074446_EX1204_MB.all.mb58.gz 118.41MB Kongsberg multibeam vendor format
0264_20120611_084355_EX1204_MB.all.mb58.gz 24.78MB Kongsberg multibeam vendor format
0265_20120611_085322_EX1204_MB.all.mb58.gz 101.67MB Kongsberg multibeam vendor format
0266_20120611_094402_EX1204_MB.all.mb58.gz 110.12MB Kongsberg multibeam vendor format
0267_20120611_103424_EX1204_MB.all.mb58.gz 22.58MB Kongsberg multibeam vendor format
0268_20120611_104232_EX1204_MB.all.mb58.gz 97.28MB Kongsberg multibeam vendor format
0269_20120611_112821_EX1204_MB.all.mb58.gz 14.26MB Kongsberg multibeam vendor format
0270_20120611_113317_EX1204_MB.all.mb58.gz 90.25MB Kongsberg multibeam vendor format
0271_20120611_121636_EX1204_MB.all.mb58.gz 24.96MB Kongsberg multibeam vendor format
0272_20120611_122508_EX1204_MB.all.mb58.gz 141.85MB Kongsberg multibeam vendor format
0273_20120611_132434_EX1204_MB.all.mb58.gz 176.63MB Kongsberg multibeam vendor format
0274_20120611_143309_EX1204_MB.all.mb58.gz 102.39MB Kongsberg multibeam vendor format
0275_20120611_152827_EX1204_MB.all.mb58.gz 22.46MB Kongsberg multibeam vendor format
0276_20120611_153957_EX1204_MB.all.mb58.gz 38.66MB Kongsberg multibeam vendor format
0277_20120611_160818_EX1204_MB.all.mb58.gz 29.12MB Kongsberg multibeam vendor format
0278_20120611_161848_EX1204_MB.all.mb58.gz 40.88MB Kongsberg multibeam vendor format
0279_20120611_163228_EX1204_MB.all.mb58.gz 49.34MB Kongsberg multibeam vendor format
0280_20120611_170049_EX1204_MB.all.mb58.gz 20.41MB Kongsberg multibeam vendor format
0281_20120611_170931_EX1204_MB.all.mb58.gz 32.72MB Kongsberg multibeam vendor format
0282_20120611_173019_EX1204_MB.all.mb58.gz 22.46MB Kongsberg multibeam vendor format
0283_20120611_173723_EX1204_MB.all.mb58.gz 48.04MB Kongsberg multibeam vendor format
0284_20120611_181104_EX1204_MB.all.mb58.gz 15.69MB Kongsberg multibeam vendor format
0285_20120611_181626_EX1204_MB.all.mb58.gz 35.30MB Kongsberg multibeam vendor format
0286_20120611_183732_EX1204_MB.all.mb58.gz 15.22MB Kongsberg multibeam vendor format
0287_20120611_184329_EX1204_MB.all.mb58.gz 42.33MB Kongsberg multibeam vendor format
0288_20120611_190957_EX1204_MB.all.mb58.gz 41.66MB Kongsberg multibeam vendor format
0289_20120611_193218_EX1204_MB.all.mb58.gz 21.01MB Kongsberg multibeam vendor format
0290_20120611_193951_EX1204_MB.all.mb58.gz 40.08MB Kongsberg multibeam vendor format
0291_20120611_195833_EX1204_MB.all.mb58.gz 10.38MB Kongsberg multibeam vendor format
0292_20120611_200232_EX1204_MB.all.mb58.gz 23.81MB Kongsberg multibeam vendor format
0293_20120611_201402_EX1204_MB.all.mb58.gz 51.38MB Kongsberg multibeam vendor format
0294_20120611_203540_EX1204_MB.all.mb58.gz 48.95MB Kongsberg multibeam vendor format
0295_20120611_205723_EX1204_MB.all.mb58.gz 18.66MB Kongsberg multibeam vendor format
0296_20120611_210352_EX1204_MB.all.mb58.gz 20.56MB Kongsberg multibeam vendor format
0297_20120611_211416_EX1204_MB.all.mb58.gz 17.22MB Kongsberg multibeam vendor format
0298_20120611_212040_EX1204_MB.all.mb58.gz 23.77MB Kongsberg multibeam vendor format
0299_20120611_213143_EX1204_MB.all.mb58.gz 343.46MB Kongsberg multibeam vendor format
0300_20120611_232719_EX1204_MB.all.mb58.gz 43.25MB Kongsberg multibeam vendor format
0301_20120611_234946_EX1204_MB.all.mb58.gz 30.84MB Kongsberg multibeam vendor format
0302_20120612_000001_EX1204_MB.all.mb58.gz 54.95MB Kongsberg multibeam vendor format
0303_20120612_002701_EX1204_MB.all.mb58.gz 28.01MB Kongsberg multibeam vendor format
0304_20120612_003656_EX1204_MB.all.mb58.gz 45.04MB Kongsberg multibeam vendor format
0305_20120612_005839_EX1204_MB.all.mb58.gz 43.64MB Kongsberg multibeam vendor format
0306_20120612_011248_EX1204_MB.all.mb58.gz 67.72MB Kongsberg multibeam vendor format
0307_20120612_014549_EX1204_MB.all.mb58.gz 292.94MB Kongsberg multibeam vendor format
0308_20120612_034551_EX1204_MB.all.mb58.gz 16.09MB Kongsberg multibeam vendor format
0309_20120612_040139_EX1204_MB.all.mb58.gz 76.89MB Kongsberg multibeam vendor format
0310_20120612_052104_EX1204_MB.all.mb58.gz 15.69MB Kongsberg multibeam vendor format
0311_20120612_053722_EX1204_MB.all.mb58.gz 66.73MB Kongsberg multibeam vendor format
0312_20120612_064826_EX1204_MB.all.mb58.gz 16.48MB Kongsberg multibeam vendor format
0313_20120612_070549_EX1204_MB.all.mb58.gz 56.34MB Kongsberg multibeam vendor format
0314_20120612_080657_EX1204_MB.all.mb58.gz 101.17MB Kongsberg multibeam vendor format
0315_20120612_094802_EX1204_MB.all.mb58.gz 201.63MB Kongsberg multibeam vendor format
0316_20120612_105439_EX1204_MB.all.mb58.gz 57.81MB Kongsberg multibeam vendor format
0317_20120612_112038_EX1204_MB.all.mb58.gz 22.93MB Kongsberg multibeam vendor format
0318_20120612_112807_EX1204_MB.all.mb58.gz 53.96MB Kongsberg multibeam vendor format
0319_20120612_115223_EX1204_MB.all.mb58.gz 17.69MB Kongsberg multibeam vendor format
0320_20120612_115821_EX1204_MB.all.mb58.gz 39.74MB Kongsberg multibeam vendor format
0321_20120612_121612_EX1204_MB.all.mb58.gz 16.86MB Kongsberg multibeam vendor format
0322_20120612_122145_EX1204_MB.all.mb58.gz 52.55MB Kongsberg multibeam vendor format
0323_20120612_124346_EX1204_MB.all.mb58.gz 18.34MB Kongsberg multibeam vendor format
0324_20120612_124944_EX1204_MB.all.mb58.gz 38.95MB Kongsberg multibeam vendor format
0325_20120612_130558_EX1204_MB.all.mb58.gz 22.95MB Kongsberg multibeam vendor format
0326_20120612_131329_EX1204_MB.all.mb58.gz 39.17MB Kongsberg multibeam vendor format
0327_20120612_132919_EX1204_MB.all.mb58.gz 238.17MB Kongsberg multibeam vendor format
0328_20120612_144531_EX1204_MB.all.mb58.gz 57.56MB Kongsberg multibeam vendor format
0329_20120612_151642_EX1204_MB.all.mb58.gz 13.87MB Kongsberg multibeam vendor format
0330_20120612_152208_EX1204_MB.all.mb58.gz 76.71MB Kongsberg multibeam vendor format
0331_20120612_155929_EX1204_MB.all.mb58.gz 143.36MB Kongsberg multibeam vendor format
0332_20120612_164831_EX1204_MB.all.mb58.gz 34.54MB Kongsberg multibeam vendor format
0333_20120612_170638_EX1204_MB.all.mb58.gz 352.28MB Kongsberg multibeam vendor format
0334_20120612_183844_EX1204_MB.all.mb58.gz 667.14MB Kongsberg multibeam vendor format
0335_20120612_203844_EX1204_MB.all.mb58.gz 751.57MB Kongsberg multibeam vendor format
0336_20120612_223843_EX1204_MB.all.mb58.gz 790.03MB Kongsberg multibeam vendor format
0337_20120613_003843_EX1204_MB.all.mb58.gz 482.62MB Kongsberg multibeam vendor format
0338_20120613_023843_EX1204_MB.all.mb58.gz 492.64MB Kongsberg multibeam vendor format
0339_20120613_043843_EX1204_MB.all.mb58.gz 490.91MB Kongsberg multibeam vendor format
0340_20120613_063843_EX1204_MB.all.mb58.gz 528.55MB Kongsberg multibeam vendor format
0341_20120613_083843_EX1204_MB.all.mb58.gz 286.83MB Kongsberg multibeam vendor format

Full Resolution Bathymetry (processed): 342

Files File Size Description
EX1204_EX03192012_2012-150_0001_20120529_231144_EX1204_MB.txt.mb162 16.03MB Generic XYZ sounding format
EX1204_EX03192012_2012-151_0001_20120530_000212_EX1204_MB.txt.mb162 3.01MB Generic XYZ sounding format
EX1204_EX03192012_2012-151_0002_20120530_005744_EX1204_MB.txt.mb162 5.96MB Generic XYZ sounding format
EX1204_EX03192012_2012-151_0003_20120530_025743_EX1204_MB.txt.mb162 5.82MB Generic XYZ sounding format
EX1204_EX03192012_2012-151_0004_20120530_045743_EX1204_MB.txt.mb162 4.60MB Generic XYZ sounding format
EX1204_EX03192012_2012-151_0005_20120530_065742_EX1204_MB.txt.mb162 4.04MB Generic XYZ sounding format
EX1204_EX03192012_2012-151_0006_20120530_085744_EX1204_MB.txt.mb162 2.30MB Generic XYZ sounding format
EX1204_EX03192012_2012-151_0007_20120530_100645_EX1204_MB.txt.mb162 3.38MB Generic XYZ sounding format
EX1204_EX03192012_2012-151_0008_20120530_120646_EX1204_MB.txt.mb162 3.24MB Generic XYZ sounding format
EX1204_EX03192012_2012-151_0009_20120530_140641_EX1204_MB.txt.mb162 0.97MB Generic XYZ sounding format
EX1204_EX03192012_2012-151_0010_20120530_144801_EX1204_MB.txt.mb162 387.5KB Generic XYZ sounding format
EX1204_EX03192012_2012-151_0011_20120530_150545_EX1204_MB.txt.mb162 3.26MB Generic XYZ sounding format
EX1204_EX03192012_2012-151_0012_20120530_170547_EX1204_MB.txt.mb162 3.37MB Generic XYZ sounding format
EX1204_EX03192012_2012-151_0013_20120530_190541_EX1204_MB.txt.mb162 311.8KB Generic XYZ sounding format
EX1204_EX03192012_2012-151_0014_20120530_191816_EX1204_MB.txt.mb162 0.53MB Generic XYZ sounding format
EX1204_EX03192012_2012-151_0015_20120530_193714_EX1204_MB.txt.mb162 3.43MB Generic XYZ sounding format
EX1204_EX03192012_2012-151_0016_20120530_213717_EX1204_MB.txt.mb162 3.46MB Generic XYZ sounding format
EX1204_EX03192012_2012-151_0017_20120530_233716_EX1204_MB.txt.mb162 0.70MB Generic XYZ sounding format
EX1204_EX03192012_2012-152_0018_20120531_000027_EX1204_MB.txt.mb162 491.1KB Generic XYZ sounding format
EX1204_EX03192012_2012-152_0019_20120531_001416_EX1204_MB.txt.mb162 4.19MB Generic XYZ sounding format
EX1204_EX03192012_2012-152_0020_20120531_021422_EX1204_MB.txt.mb162 4.10MB Generic XYZ sounding format
EX1204_EX03192012_2012-152_0021_20120531_041419_EX1204_MB.txt.mb162 60.4KB Generic XYZ sounding format
EX1204_EX03192012_2012-152_0022_20120531_041619_EX1204_MB.txt.mb162 0.68MB Generic XYZ sounding format
EX1204_EX03192012_2012-152_0023_20120531_043543_EX1204_MB.txt.mb162 4.16MB Generic XYZ sounding format
EX1204_EX03192012_2012-152_0024_20120531_063546_EX1204_MB.txt.mb162 4.51MB Generic XYZ sounding format
EX1204_EX03192012_2012-152_0025_20120531_083547_EX1204_MB.txt.mb162 0.82MB Generic XYZ sounding format
EX1204_EX03192012_2012-152_0026_20120531_085603_EX1204_MB.txt.mb162 4.66MB Generic XYZ sounding format
EX1204_EX03192012_2012-152_0027_20120531_105607_EX1204_MB.txt.mb162 4.27MB Generic XYZ sounding format
EX1204_EX03192012_2012-152_0028_20120531_125605_EX1204_MB.txt.mb162 0.87MB Generic XYZ sounding format
EX1204_EX03192012_2012-152_0029_20120531_131942_EX1204_MB.txt.mb162 5.00MB Generic XYZ sounding format
EX1204_EX03192012_2012-152_0030_20120531_151941_EX1204_MB.txt.mb162 5.06MB Generic XYZ sounding format
EX1204_EX03192012_2012-152_0031_20120531_171941_EX1204_MB.txt.mb162 0.77MB Generic XYZ sounding format
EX1204_EX03192012_2012-152_0032_20120531_173637_EX1204_MB.txt.mb162 0.98MB Generic XYZ sounding format
EX1204_EX03192012_2012-152_0033_20120531_175726_EX1204_MB.txt.mb162 2.08MB Generic XYZ sounding format
EX1204_EX03192012_2012-152_0034_20120531_191328_EX1204_MB.txt.mb162 3.71MB Generic XYZ sounding format
EX1204_EX03192012_2012-152_0035_20120531_211326_EX1204_MB.txt.mb162 3.67MB Generic XYZ sounding format
EX1204_EX03192012_2012-152_0036_20120531_231000_EX1204_MB.txt.mb162 1.54MB Generic XYZ sounding format
EX1204_EX03192012_2012-153_0037_20120601_000002_EX1204_MB.txt.mb162 3.90MB Generic XYZ sounding format
EX1204_EX03192012_2012-153_0038_20120601_020007_EX1204_MB.txt.mb162 4.07MB Generic XYZ sounding format
EX1204_EX03192012_2012-153_0039_20120601_040001_EX1204_MB.txt.mb162 1.57MB Generic XYZ sounding format
EX1204_EX03192012_2012-153_0040_20120601_043938_EX1204_MB.txt.mb162 0.71MB Generic XYZ sounding format
EX1204_EX03192012_2012-153_0041_20120601_045709_EX1204_MB.txt.mb162 4.09MB Generic XYZ sounding format
EX1204_EX03192012_2012-153_0042_20120601_065711_EX1204_MB.txt.mb162 3.34MB Generic XYZ sounding format
EX1204_EX03192012_2012-153_0043_20120601_085708_EX1204_MB.txt.mb162 3.90MB Generic XYZ sounding format
EX1204_EX03192012_2012-153_0044_20120601_105712_EX1204_MB.txt.mb162 0.95MB Generic XYZ sounding format
EX1204_EX03192012_2012-153_0045_20120601_112734_EX1204_MB.txt.mb162 0.53MB Generic XYZ sounding format
EX1204_EX03192012_2012-153_0046_20120601_114432_EX1204_MB.txt.mb162 3.95MB Generic XYZ sounding format
EX1204_EX03192012_2012-153_0047_20120601_134434_EX1204_MB.txt.mb162 495.7KB Generic XYZ sounding format
EX1204_EX03192012_2012-153_0048_20120601_142845_EX1204_MB.txt.mb162 336.3KB Generic XYZ sounding format
EX1204_EX03192012_2012-153_0049_20120601_143843_EX1204_MB.txt.mb162 3.86MB Generic XYZ sounding format
EX1204_EX03192012_2012-153_0050_20120601_163848_EX1204_MB.txt.mb162 0.97MB Generic XYZ sounding format
EX1204_EX03192012_2012-153_0051_20120601_170905_EX1204_MB.txt.mb162 3.47MB Generic XYZ sounding format
EX1204_EX03192012_2012-153_0052_20120601_185510_EX1204_MB.txt.mb162 1.99MB Generic XYZ sounding format
EX1204_EX03192012_2012-153_0053_20120601_194100_EX1204_MB.txt.mb162 4.53MB Generic XYZ sounding format
EX1204_EX03192012_2012-153_0054_20120601_214104_EX1204_MB.txt.mb162 3.52MB Generic XYZ sounding format
EX1204_EX03192012_2012-153_0055_20120601_232255_EX1204_MB.txt.mb162 1.26MB Generic XYZ sounding format
EX1204_EX03192012_2012-154_0056_20120602_000000_EX1204_MB.txt.mb162 4.34MB Generic XYZ sounding format
EX1204_EX03192012_2012-154_0057_20120602_020008_EX1204_MB.txt.mb162 3.72MB Generic XYZ sounding format
EX1204_EX03192012_2012-154_0058_20120602_040001_EX1204_MB.txt.mb162 0.68MB Generic XYZ sounding format
EX1204_EX03192012_2012-154_0059_20120602_042434_EX1204_MB.txt.mb162 0.95MB Generic XYZ sounding format
EX1204_EX03192012_2012-154_0060_20120602_045420_EX1204_MB.txt.mb162 4.83MB Generic XYZ sounding format
EX1204_EX03192012_2012-154_0061_20120602_065421_EX1204_MB.txt.mb162 4.81MB Generic XYZ sounding format
EX1204_EX03192012_2012-154_0062_20120602_085427_EX1204_MB.txt.mb162 4.35MB Generic XYZ sounding format
EX1204_EX03192012_2012-154_0063_20120602_105422_EX1204_MB.txt.mb162 4.80MB Generic XYZ sounding format
EX1204_EX03192012_2012-154_0064_20120602_125420_EX1204_MB.txt.mb162 2.16MB Generic XYZ sounding format
EX1204_EX03192012_2012-154_0065_20120602_133704_EX1204_MB.txt.mb162 8.50MB Generic XYZ sounding format
EX1204_EX03192012_2012-154_0066_20120602_153709_EX1204_MB.txt.mb162 9.77MB Generic XYZ sounding format
EX1204_EX03192012_2012-154_0067_20120602_173704_EX1204_MB.txt.mb162 10.68MB Generic XYZ sounding format
EX1204_EX03192012_2012-154_0068_20120602_193704_EX1204_MB.txt.mb162 9.09MB Generic XYZ sounding format
EX1204_EX03192012_2012-154_0069_20120602_212548_EX1204_MB.txt.mb162 2.16MB Generic XYZ sounding format
EX1204_EX03192012_2012-154_0070_20120602_215331_EX1204_MB.txt.mb162 11.63MB Generic XYZ sounding format
EX1204_EX03192012_2012-154_0071_20120602_235332_EX1204_MB.txt.mb162 0.69MB Generic XYZ sounding format
EX1204_EX03192012_2012-155_0072_20120603_000003_EX1204_MB.txt.mb162 10.22MB Generic XYZ sounding format
EX1204_EX03192012_2012-155_0073_20120603_020007_EX1204_MB.txt.mb162 9.75MB Generic XYZ sounding format
EX1204_EX03192012_2012-155_0074_20120603_040007_EX1204_MB.txt.mb162 1.87MB Generic XYZ sounding format
EX1204_EX03192012_2012-155_0075_20120603_042150_EX1204_MB.txt.mb162 3.43MB Generic XYZ sounding format
EX1204_EX03192012_2012-155_0076_20120603_045825_EX1204_MB.txt.mb162 11.23MB Generic XYZ sounding format
EX1204_EX03192012_2012-155_0077_20120603_065823_EX1204_MB.txt.mb162 11.95MB Generic XYZ sounding format
EX1204_EX03192012_2012-155_0078_20120603_085819_EX1204_MB.txt.mb162 13.30MB Generic XYZ sounding format
EX1204_EX03192012_2012-155_0079_20120603_105824_EX1204_MB.txt.mb162 1.62MB Generic XYZ sounding format
EX1204_EX03192012_2012-155_0080_20120603_111544_EX1204_MB.txt.mb162 14.94MB Generic XYZ sounding format
EX1204_EX03192012_2012-155_0081_20120603_131544_EX1204_MB.txt.mb162 13.57MB Generic XYZ sounding format
EX1204_EX03192012_2012-155_0082_20120603_151543_EX1204_MB.txt.mb162 11.52MB Generic XYZ sounding format
EX1204_EX03192012_2012-155_0083_20120603_170811_EX1204_MB.txt.mb162 2.66MB Generic XYZ sounding format
EX1204_EX03192012_2012-155_0084_20120603_173248_EX1204_MB.txt.mb162 14.19MB Generic XYZ sounding format
EX1204_EX03192012_2012-155_0085_20120603_193248_EX1204_MB.txt.mb162 14.44MB Generic XYZ sounding format
EX1204_EX03192012_2012-155_0086_20120603_213247_EX1204_MB.txt.mb162 10.04MB Generic XYZ sounding format
EX1204_EX03192012_2012-155_0087_20120603_225809_EX1204_MB.txt.mb162 1.84MB Generic XYZ sounding format
EX1204_EX03192012_2012-155_0088_20120603_231625_EX1204_MB.txt.mb162 5.04MB Generic XYZ sounding format
EX1204_EX03192012_2012-156_0089_20120604_000000_EX1204_MB.txt.mb162 13.85MB Generic XYZ sounding format
EX1204_EX03192012_2012-156_0090_20120604_020000_EX1204_MB.txt.mb162 13.31MB Generic XYZ sounding format
EX1204_EX03192012_2012-156_0091_20120604_040000_EX1204_MB.txt.mb162 2.10MB Generic XYZ sounding format
EX1204_EX03192012_2012-156_0092_20120604_041724_EX1204_MB.txt.mb162 2.67MB Generic XYZ sounding format
EX1204_EX03192012_2012-156_0093_20120604_044007_EX1204_MB.txt.mb162 15.71MB Generic XYZ sounding format
EX1204_EX03192012_2012-156_0094_20120604_064010_EX1204_MB.txt.mb162 14.63MB Generic XYZ sounding format
EX1204_EX03192012_2012-156_0095_20120604_084009_EX1204_MB.txt.mb162 9.83MB Generic XYZ sounding format
EX1204_EX03192012_2012-156_0096_20120604_095711_EX1204_MB.txt.mb162 2.04MB Generic XYZ sounding format
EX1204_EX03192012_2012-156_0097_20120604_101444_EX1204_MB.txt.mb162 9.50MB Generic XYZ sounding format
EX1204_EX03192012_2012-156_0098_20120604_112855_EX1204_MB.txt.mb162 10.92MB Generic XYZ sounding format
EX1204_EX03192012_2012-156_0099_20120604_125620_EX1204_MB.txt.mb162 2.10MB Generic XYZ sounding format
EX1204_EX03192012_2012-156_0100_20120604_131250_EX1204_MB.txt.mb162 15.21MB Generic XYZ sounding format
EX1204_EX03192012_2012-156_0101_20120604_151253_EX1204_MB.txt.mb162 15.62MB Generic XYZ sounding format
EX1204_EX03192012_2012-156_0102_20120604_171252_EX1204_MB.txt.mb162 503.4KB Generic XYZ sounding format
EX1204_EX03192012_2012-156_0103_20120604_171645_EX1204_MB.txt.mb162 1.70MB Generic XYZ sounding format
EX1204_EX03192012_2012-156_0104_20120604_173028_EX1204_MB.txt.mb162 4.61MB Generic XYZ sounding format
EX1204_EX03192012_2012-156_0105_20120604_180604_EX1204_MB.txt.mb162 88 Bytes Generic XYZ sounding format
EX1204_EX03192012_2012-156_0106_20120604_182945_EX1204_MB.txt.mb162 1.08MB Generic XYZ sounding format
EX1204_EX03192012_2012-156_0107_20120604_183828_EX1204_MB.txt.mb162 14.42MB Generic XYZ sounding format
EX1204_EX03192012_2012-156_0108_20120604_203830_EX1204_MB.txt.mb162 13.70MB Generic XYZ sounding format
EX1204_EX03192012_2012-156_0109_20120604_222540_EX1204_MB.txt.mb162 9.11MB Generic XYZ sounding format
EX1204_EX03192012_2012-157_0110_20120605_000001_EX1204_MB.txt.mb162 1.38MB Generic XYZ sounding format
EX1204_EX03192012_2012-157_0111_20120605_001401_EX1204_MB.txt.mb162 312.4KB Generic XYZ sounding format
EX1204_EX03192012_2012-157_0112_20120605_001713_EX1204_MB.txt.mb162 10.34MB Generic XYZ sounding format
EX1204_EX03192012_2012-157_0113_20120605_021710_EX1204_MB.txt.mb162 0.85MB Generic XYZ sounding format
EX1204_EX03192012_2012-157_0114_20120605_035143_EX1204_MB.txt.mb162 26.45MB Generic XYZ sounding format
EX1204_EX03192012_2012-157_0115_20120605_055143_EX1204_MB.txt.mb162 2.62MB Generic XYZ sounding format
EX1204_EX03192012_2012-157_0116_20120605_060043_EX1204_MB.txt.mb162 29.16MB Generic XYZ sounding format
EX1204_EX03192012_2012-157_0117_20120605_080044_EX1204_MB.txt.mb162 20.55MB Generic XYZ sounding format
EX1204_EX03192012_2012-157_0118_20120605_093016_EX1204_MB.txt.mb162 3.22MB Generic XYZ sounding format
EX1204_EX03192012_2012-157_0119_20120605_094246_EX1204_MB.txt.mb162 14.80MB Generic XYZ sounding format
EX1204_EX03192012_2012-157_0120_20120605_114245_EX1204_MB.txt.mb162 1.76MB Generic XYZ sounding format
EX1204_EX03192012_2012-157_0121_20120605_115720_EX1204_MB.txt.mb162 0.74MB Generic XYZ sounding format
EX1204_EX03192012_2012-157_0122_20120605_120333_EX1204_MB.txt.mb162 12.54MB Generic XYZ sounding format
EX1204_EX03192012_2012-157_0123_20120605_140333_EX1204_MB.txt.mb162 2.14MB Generic XYZ sounding format
EX1204_EX03192012_2012-157_0124_20120605_142254_EX1204_MB.txt.mb162 0.59MB Generic XYZ sounding format
EX1204_EX03192012_2012-157_0125_20120605_142750_EX1204_MB.txt.mb162 15.04MB Generic XYZ sounding format
EX1204_EX03192012_2012-157_0126_20120605_162513_EX1204_MB.txt.mb162 0.79MB Generic XYZ sounding format
EX1204_EX03192012_2012-157_0127_20120605_163129_EX1204_MB.txt.mb162 14.14MB Generic XYZ sounding format
EX1204_EX03192012_2012-157_0128_20120605_183131_EX1204_MB.txt.mb162 15.05MB Generic XYZ sounding format
EX1204_EX03192012_2012-157_0129_20120605_203132_EX1204_MB.txt.mb162 13.40MB Generic XYZ sounding format
EX1204_EX03192012_2012-157_0130_20120605_223132_EX1204_MB.txt.mb162 2.08MB Generic XYZ sounding format
EX1204_EX03192012_2012-157_0131_20120605_225304_EX1204_MB.txt.mb162 7.38MB Generic XYZ sounding format
EX1204_EX03192012_2012-158_0132_20120606_000002_EX1204_MB.txt.mb162 14.87MB Generic XYZ sounding format
EX1204_EX03192012_2012-158_0133_20120606_020001_EX1204_MB.txt.mb162 12.95MB Generic XYZ sounding format
EX1204_EX03192012_2012-158_0134_20120606_034248_EX1204_MB.txt.mb162 1.13MB Generic XYZ sounding format
EX1204_EX03192012_2012-158_0135_20120606_035200_EX1204_MB.txt.mb162 14.95MB Generic XYZ sounding format
EX1204_EX03192012_2012-158_0136_20120606_055200_EX1204_MB.txt.mb162 430.1KB Generic XYZ sounding format
EX1204_EX03192012_2012-158_0137_20120606_055528_EX1204_MB.txt.mb162 1.51MB Generic XYZ sounding format
EX1204_EX03192012_2012-158_0138_20120606_060745_EX1204_MB.txt.mb162 14.96MB Generic XYZ sounding format
EX1204_EX03192012_2012-158_0139_20120606_080745_EX1204_MB.txt.mb162 14.76MB Generic XYZ sounding format
EX1204_EX03192012_2012-158_0140_20120606_100745_EX1204_MB.txt.mb162 3.42MB Generic XYZ sounding format
EX1204_EX03192012_2012-158_0141_20120606_103536_EX1204_MB.txt.mb162 0.82MB Generic XYZ sounding format
EX1204_EX03192012_2012-158_0142_20120606_104413_EX1204_MB.txt.mb162 34.25MB Generic XYZ sounding format
EX1204_EX03192012_2012-158_0143_20120606_124414_EX1204_MB.txt.mb162 21.51MB Generic XYZ sounding format
EX1204_EX03192012_2012-158_0144_20120606_135416_EX1204_MB.txt.mb162 3.27MB Generic XYZ sounding format
EX1204_EX03192012_2012-158_0145_20120606_140823_EX1204_MB.txt.mb162 29.39MB Generic XYZ sounding format
EX1204_EX03192012_2012-158_0146_20120606_160822_EX1204_MB.txt.mb162 15.63MB Generic XYZ sounding format
EX1204_EX03192012_2012-158_0147_20120606_172213_EX1204_MB.txt.mb162 0.54MB Generic XYZ sounding format
EX1204_EX03192012_2012-158_0148_20120606_172636_EX1204_MB.txt.mb162 406.7KB Generic XYZ sounding format
EX1204_EX03192012_2012-158_0149_20120606_172953_EX1204_MB.txt.mb162 14.89MB Generic XYZ sounding format
EX1204_EX03192012_2012-158_0150_20120606_192953_EX1204_MB.txt.mb162 11.98MB Generic XYZ sounding format
EX1204_EX03192012_2012-158_0151_20120606_210617_EX1204_MB.txt.mb162 3.89MB Generic XYZ sounding format
EX1204_EX03192012_2012-158_0152_20120606_213701_EX1204_MB.txt.mb162 14.46MB Generic XYZ sounding format
EX1204_EX03192012_2012-158_0153_20120606_233605_EX1204_MB.txt.mb162 2.97MB Generic XYZ sounding format
EX1204_EX03192012_2012-159_0154_20120607_000017_EX1204_MB.txt.mb162 6.99MB Generic XYZ sounding format
EX1204_EX03192012_2012-159_0155_20120607_005746_EX1204_MB.txt.mb162 1.12MB Generic XYZ sounding format
EX1204_EX03192012_2012-159_0156_20120607_010711_EX1204_MB.txt.mb162 14.17MB Generic XYZ sounding format
EX1204_EX03192012_2012-159_0157_20120607_030711_EX1204_MB.txt.mb162 8.67MB Generic XYZ sounding format
EX1204_EX03192012_2012-159_0158_20120607_041955_EX1204_MB.txt.mb162 2.31MB Generic XYZ sounding format
EX1204_EX03192012_2012-159_0159_20120607_043852_EX1204_MB.txt.mb162 14.33MB Generic XYZ sounding format
EX1204_EX03192012_2012-159_0160_20120607_063852_EX1204_MB.txt.mb162 7.16MB Generic XYZ sounding format
EX1204_EX03192012_2012-159_0161_20120607_073819_EX1204_MB.txt.mb162 1.19MB Generic XYZ sounding format
EX1204_EX03192012_2012-159_0162_20120607_074804_EX1204_MB.txt.mb162 13.94MB Generic XYZ sounding format
EX1204_EX03192012_2012-159_0163_20120607_094804_EX1204_MB.txt.mb162 1.17MB Generic XYZ sounding format
EX1204_EX03192012_2012-159_0164_20120607_095808_EX1204_MB.txt.mb162 1.51MB Generic XYZ sounding format
EX1204_EX03192012_2012-159_0165_20120607_101040_EX1204_MB.txt.mb162 13.86MB Generic XYZ sounding format
EX1204_EX03192012_2012-159_0166_20120607_121041_EX1204_MB.txt.mb162 10.41MB Generic XYZ sounding format
EX1204_EX03192012_2012-159_0167_20120607_141041_EX1204_MB.txt.mb162 0.77MB Generic XYZ sounding format
EX1204_EX03192012_2012-159_0168_20120607_142131_EX1204_MB.txt.mb162 7.68MB Generic XYZ sounding format
EX1204_EX03192012_2012-159_0169_20120607_162131_EX1204_MB.txt.mb162 7.84MB Generic XYZ sounding format
EX1204_EX03192012_2012-159_0170_20120607_182132_EX1204_MB.txt.mb162 7.51MB Generic XYZ sounding format
EX1204_EX03192012_2012-159_0171_20120607_201525_EX1204_MB.txt.mb162 2.28MB Generic XYZ sounding format
EX1204_EX03192012_2012-159_0172_20120607_204545_EX1204_MB.txt.mb162 8.12MB Generic XYZ sounding format
EX1204_EX03192012_2012-159_0173_20120607_224431_EX1204_MB.txt.mb162 5.10MB Generic XYZ sounding format
EX1204_EX03192012_2012-160_0174_20120608_000019_EX1204_MB.txt.mb162 1.97MB Generic XYZ sounding format
EX1204_EX03192012_2012-160_0175_20120608_002925_EX1204_MB.txt.mb162 4.82MB Generic XYZ sounding format
EX1204_EX03192012_2012-160_0176_20120608_013551_EX1204_MB.txt.mb162 9.20MB Generic XYZ sounding format
EX1204_EX03192012_2012-160_0177_20120608_033554_EX1204_MB.txt.mb162 4.80MB Generic XYZ sounding format
EX1204_EX03192012_2012-160_0178_20120608_043842_EX1204_MB.txt.mb162 2.18MB Generic XYZ sounding format
EX1204_EX03192012_2012-160_0179_20120608_050313_EX1204_MB.txt.mb162 9.51MB Generic XYZ sounding format
EX1204_EX03192012_2012-160_0180_20120608_070100_EX1204_MB.txt.mb162 3.26MB Generic XYZ sounding format
EX1204_EX03192012_2012-160_0181_20120608_073555_EX1204_MB.txt.mb162 8.48MB Generic XYZ sounding format
EX1204_EX03192012_2012-160_0182_20120608_090213_EX1204_MB.txt.mb162 9.57MB Generic XYZ sounding format
EX1204_EX03192012_2012-160_0183_20120608_102151_EX1204_MB.txt.mb162 0.61MB Generic XYZ sounding format
EX1204_EX03192012_2012-160_0184_20120608_102704_EX1204_MB.txt.mb162 24.01MB Generic XYZ sounding format
EX1204_EX03192012_2012-160_0185_20120608_113855_EX1204_MB.txt.mb162 5.57MB Generic XYZ sounding format
EX1204_EX03192012_2012-160_0186_20120608_114716_EX1204_MB.txt.mb162 32.54MB Generic XYZ sounding format
EX1204_EX03192012_2012-160_0187_20120608_123657_EX1204_MB.txt.mb162 6.22MB Generic XYZ sounding format
EX1204_EX03192012_2012-160_0188_20120608_125554_EX1204_MB.txt.mb162 27.62MB Generic XYZ sounding format
EX1204_EX03192012_2012-160_0189_20120608_133641_EX1204_MB.txt.mb162 7.81MB Generic XYZ sounding format
EX1204_EX03192012_2012-160_0190_20120608_134609_EX1204_MB.txt.mb162 38.97MB Generic XYZ sounding format
EX1204_EX03192012_2012-160_0191_20120608_154612_EX1204_MB.txt.mb162 0.98MB Generic XYZ sounding format
EX1204_EX03192012_2012-160_0192_20120608_155732_EX1204_MB.txt.mb162 4.61MB Generic XYZ sounding format
EX1204_EX03192012_2012-160_0193_20120608_163853_EX1204_MB.txt.mb162 8.62MB Generic XYZ sounding format
EX1204_EX03192012_2012-160_0194_20120608_175835_EX1204_MB.txt.mb162 9.22MB Generic XYZ sounding format
EX1204_EX03192012_2012-160_0195_20120608_192058_EX1204_MB.txt.mb162 10.37MB Generic XYZ sounding format
EX1204_EX03192012_2012-160_0196_20120608_204107_EX1204_MB.txt.mb162 14.32MB Generic XYZ sounding format
EX1204_EX03192012_2012-160_0197_20120608_224106_EX1204_MB.txt.mb162 10.45MB Generic XYZ sounding format
EX1204_EX03192012_2012-161_0198_20120609_000001_EX1204_MB.txt.mb162 57.21MB Generic XYZ sounding format
EX1204_EX03192012_2012-161_0199_20120609_020000_EX1204_MB.txt.mb162 12.75MB Generic XYZ sounding format
EX1204_EX03192012_2012-161_0200_20120609_023202_EX1204_MB.txt.mb162 3.03MB Generic XYZ sounding format
EX1204_EX03192012_2012-161_0201_20120609_025643_EX1204_MB.txt.mb162 1.05MB Generic XYZ sounding format
EX1204_EX03192012_2012-161_0202_20120609_030728_EX1204_MB.txt.mb162 2.02MB Generic XYZ sounding format
EX1204_EX03192012_2012-161_0203_20120609_032426_EX1204_MB.txt.mb162 11.34MB Generic XYZ sounding format
EX1204_EX03192012_2012-161_0204_20120609_052435_EX1204_MB.txt.mb162 3.25MB Generic XYZ sounding format
EX1204_EX03192012_2012-161_0205_20120609_061005_EX1204_MB.txt.mb162 5.53MB Generic XYZ sounding format
EX1204_EX03192012_2012-161_0206_20120609_073454_EX1204_MB.txt.mb162 1.44MB Generic XYZ sounding format
EX1204_EX03192012_2012-161_0207_20120609_075349_EX1204_MB.txt.mb162 6.08MB Generic XYZ sounding format
EX1204_EX03192012_2012-161_0208_20120609_091938_EX1204_MB.txt.mb162 1.69MB Generic XYZ sounding format
EX1204_EX03192012_2012-161_0209_20120609_094036_EX1204_MB.txt.mb162 4.32MB Generic XYZ sounding format
EX1204_EX03192012_2012-161_0210_20120609_105027_EX1204_MB.txt.mb162 1.92MB Generic XYZ sounding format
EX1204_EX03192012_2012-161_0211_20120609_110917_EX1204_MB.txt.mb162 5.49MB Generic XYZ sounding format
EX1204_EX03192012_2012-161_0212_20120609_121931_EX1204_MB.txt.mb162 1.62MB Generic XYZ sounding format
EX1204_EX03192012_2012-161_0213_20120609_123613_EX1204_MB.txt.mb162 9.16MB Generic XYZ sounding format
EX1204_EX03192012_2012-161_0214_20120609_140033_EX1204_MB.txt.mb162 1.02MB Generic XYZ sounding format
EX1204_EX03192012_2012-161_0215_20120609_140901_EX1204_MB.txt.mb162 8.53MB Generic XYZ sounding format
EX1204_EX03192012_2012-161_0216_20120609_151946_EX1204_MB.txt.mb162 1.51MB Generic XYZ sounding format
EX1204_EX03192012_2012-161_0217_20120609_153209_EX1204_MB.txt.mb162 8.30MB Generic XYZ sounding format
EX1204_EX03192012_2012-161_0218_20120609_164401_EX1204_MB.txt.mb162 2.00MB Generic XYZ sounding format
EX1204_EX03192012_2012-161_0219_20120609_165324_EX1204_MB.txt.mb162 9.91MB Generic XYZ sounding format
EX1204_EX03192012_2012-161_0220_20120609_175510_EX1204_MB.txt.mb162 0.91MB Generic XYZ sounding format
EX1204_EX03192012_2012-161_0221_20120609_180303_EX1204_MB.txt.mb162 14.32MB Generic XYZ sounding format
EX1204_EX03192012_2012-161_0222_20120609_190912_EX1204_MB.txt.mb162 14.20MB Generic XYZ sounding format
EX1204_EX03192012_2012-161_0223_20120609_200449_EX1204_MB.txt.mb162 5.15MB Generic XYZ sounding format
EX1204_EX03192012_2012-161_0224_20120609_202042_EX1204_MB.txt.mb162 8.17MB Generic XYZ sounding format
EX1204_EX03192012_2012-161_0225_20120609_205255_EX1204_MB.txt.mb162 2.92MB Generic XYZ sounding format
EX1204_EX03192012_2012-161_0226_20120609_205932_EX1204_MB.txt.mb162 5.79MB Generic XYZ sounding format
EX1204_EX03192012_2012-161_0227_20120609_212242_EX1204_MB.txt.mb162 6.86MB Generic XYZ sounding format
EX1204_EX03192012_2012-161_0228_20120609_213844_EX1204_MB.txt.mb162 3.77MB Generic XYZ sounding format
EX1204_EX03192012_2012-161_0229_20120609_215739_EX1204_MB.txt.mb162 1.79MB Generic XYZ sounding format
EX1204_EX03192012_2012-161_0230_20120609_220349_EX1204_MB.txt.mb162 3.04MB Generic XYZ sounding format
EX1204_EX03192012_2012-161_0231_20120609_221735_EX1204_MB.txt.mb162 2.93MB Generic XYZ sounding format
EX1204_EX03192012_2012-161_0232_20120609_222418_EX1204_MB.txt.mb162 4.31MB Generic XYZ sounding format
EX1204_EX03192012_2012-161_0233_20120609_224007_EX1204_MB.txt.mb162 3.55MB Generic XYZ sounding format
EX1204_EX03192012_2012-161_0234_20120609_224803_EX1204_MB.txt.mb162 2.64MB Generic XYZ sounding format
EX1204_EX03192012_2012-161_0235_20120609_225851_EX1204_MB.txt.mb162 2.57MB Generic XYZ sounding format
EX1204_EX03192012_2012-161_0236_20120609_230428_EX1204_MB.txt.mb162 4.49MB Generic XYZ sounding format
EX1204_EX03192012_2012-161_0237_20120609_232032_EX1204_MB.txt.mb162 19.87MB Generic XYZ sounding format
EX1204_EX03192012_2012-162_0238_20120610_000001_EX1204_MB.txt.mb162 17.93MB Generic XYZ sounding format
EX1204_EX03192012_2012-162_0239_20120610_020004_EX1204_MB.txt.mb162 7.41MB Generic XYZ sounding format
EX1204_EX03192012_2012-162_0240_20120610_033709_EX1204_MB.txt.mb162 7.92MB Generic XYZ sounding format
EX1204_EX03192012_2012-162_0241_20120610_053708_EX1204_MB.txt.mb162 1.45MB Generic XYZ sounding format
EX1204_EX03192012_2012-162_0242_20120610_055723_EX1204_MB.txt.mb162 7.97MB Generic XYZ sounding format
EX1204_EX03192012_2012-162_0243_20120610_075726_EX1204_MB.txt.mb162 2.21MB Generic XYZ sounding format
EX1204_EX03192012_2012-162_0244_20120610_082539_EX1204_MB.txt.mb162 8.93MB Generic XYZ sounding format
EX1204_EX03192012_2012-162_0245_20120610_102341_EX1204_MB.txt.mb162 1.63MB Generic XYZ sounding format
EX1204_EX03192012_2012-162_0246_20120610_104133_EX1204_MB.txt.mb162 9.28MB Generic XYZ sounding format
EX1204_EX03192012_2012-162_0247_20120610_124138_EX1204_MB.txt.mb162 2.77MB Generic XYZ sounding format
EX1204_EX03192012_2012-162_0248_20120610_130538_EX1204_MB.txt.mb162 11.61MB Generic XYZ sounding format
EX1204_EX03192012_2012-162_0249_20120610_150539_EX1204_MB.txt.mb162 6.51MB Generic XYZ sounding format
EX1204_EX03192012_2012-162_0250_20120610_161108_EX1204_MB.txt.mb162 1.31MB Generic XYZ sounding format
EX1204_EX03192012_2012-162_0251_20120610_162442_EX1204_MB.txt.mb162 7.89MB Generic XYZ sounding format
EX1204_EX03192012_2012-162_0252_20120610_173740_EX1204_MB.txt.mb162 11.01MB Generic XYZ sounding format
EX1204_EX03192012_2012-162_0253_20120610_192304_EX1204_MB.txt.mb162 1.15MB Generic XYZ sounding format
EX1204_EX03192012_2012-162_0254_20120610_193248_EX1204_MB.txt.mb162 12.90MB Generic XYZ sounding format
EX1204_EX03192012_2012-162_0255_20120610_213246_EX1204_MB.txt.mb162 7.46MB Generic XYZ sounding format
EX1204_EX03192012_2012-162_0256_20120610_224007_EX1204_MB.txt.mb162 1.69MB Generic XYZ sounding format
EX1204_EX03192012_2012-162_0257_20120610_225414_EX1204_MB.txt.mb162 7.56MB Generic XYZ sounding format
EX1204_EX03192012_2012-163_0258_20120611_000019_EX1204_MB.txt.mb162 13.15MB Generic XYZ sounding format
EX1204_EX03192012_2012-163_0259_20120611_014540_EX1204_MB.txt.mb162 31.37MB Generic XYZ sounding format
EX1204_EX03192012_2012-163_0260_20120611_034541_EX1204_MB.txt.mb162 11.83MB Generic XYZ sounding format
EX1204_EX03192012_2012-163_0261_20120611_051818_EX1204_MB.txt.mb162 3.18MB Generic XYZ sounding format
EX1204_EX03192012_2012-163_0262_20120611_054445_EX1204_MB.txt.mb162 23.82MB Generic XYZ sounding format
EX1204_EX03192012_2012-163_0263_20120611_074446_EX1204_MB.txt.mb162 13.71MB Generic XYZ sounding format
EX1204_EX03192012_2012-163_0264_20120611_084355_EX1204_MB.txt.mb162 4.00MB Generic XYZ sounding format
EX1204_EX03192012_2012-163_0265_20120611_085322_EX1204_MB.txt.mb162 13.12MB Generic XYZ sounding format
EX1204_EX03192012_2012-163_0266_20120611_094402_EX1204_MB.txt.mb162 14.88MB Generic XYZ sounding format
EX1204_EX03192012_2012-163_0267_20120611_103424_EX1204_MB.txt.mb162 3.84MB Generic XYZ sounding format
EX1204_EX03192012_2012-163_0268_20120611_104232_EX1204_MB.txt.mb162 12.77MB Generic XYZ sounding format
EX1204_EX03192012_2012-163_0269_20120611_112821_EX1204_MB.txt.mb162 1.97MB Generic XYZ sounding format
EX1204_EX03192012_2012-163_0270_20120611_113317_EX1204_MB.txt.mb162 12.09MB Generic XYZ sounding format
EX1204_EX03192012_2012-163_0271_20120611_121636_EX1204_MB.txt.mb162 4.35MB Generic XYZ sounding format
EX1204_EX03192012_2012-163_0272_20120611_122508_EX1204_MB.txt.mb162 21.45MB Generic XYZ sounding format
EX1204_EX03192012_2012-163_0273_20120611_132434_EX1204_MB.txt.mb162 30.73MB Generic XYZ sounding format
EX1204_EX03192012_2012-163_0274_20120611_143309_EX1204_MB.txt.mb162 16.32MB Generic XYZ sounding format
EX1204_EX03192012_2012-163_0275_20120611_152827_EX1204_MB.txt.mb162 3.37MB Generic XYZ sounding format
EX1204_EX03192012_2012-163_0276_20120611_153957_EX1204_MB.txt.mb162 5.11MB Generic XYZ sounding format
EX1204_EX03192012_2012-163_0277_20120611_160818_EX1204_MB.txt.mb162 5.19MB Generic XYZ sounding format
EX1204_EX03192012_2012-163_0278_20120611_161848_EX1204_MB.txt.mb162 7.54MB Generic XYZ sounding format
EX1204_EX03192012_2012-163_0279_20120611_163228_EX1204_MB.txt.mb162 7.27MB Generic XYZ sounding format
EX1204_EX03192012_2012-163_0280_20120611_170049_EX1204_MB.txt.mb162 3.27MB Generic XYZ sounding format
EX1204_EX03192012_2012-163_0281_20120611_170931_EX1204_MB.txt.mb162 4.74MB Generic XYZ sounding format
EX1204_EX03192012_2012-163_0282_20120611_173019_EX1204_MB.txt.mb162 4.15MB Generic XYZ sounding format
EX1204_EX03192012_2012-163_0283_20120611_173723_EX1204_MB.txt.mb162 6.82MB Generic XYZ sounding format
EX1204_EX03192012_2012-163_0284_20120611_181104_EX1204_MB.txt.mb162 2.74MB Generic XYZ sounding format
EX1204_EX03192012_2012-163_0285_20120611_181626_EX1204_MB.txt.mb162 4.59MB Generic XYZ sounding format
EX1204_EX03192012_2012-163_0286_20120611_183732_EX1204_MB.txt.mb162 2.68MB Generic XYZ sounding format
EX1204_EX03192012_2012-163_0287_20120611_184329_EX1204_MB.txt.mb162 6.15MB Generic XYZ sounding format
EX1204_EX03192012_2012-163_0288_20120611_190957_EX1204_MB.txt.mb162 5.72MB Generic XYZ sounding format
EX1204_EX03192012_2012-163_0289_20120611_193218_EX1204_MB.txt.mb162 3.52MB Generic XYZ sounding format
EX1204_EX03192012_2012-163_0290_20120611_193951_EX1204_MB.txt.mb162 6.14MB Generic XYZ sounding format
EX1204_EX03192012_2012-163_0291_20120611_195833_EX1204_MB.txt.mb162 1.78MB Generic XYZ sounding format
EX1204_EX03192012_2012-163_0292_20120611_200232_EX1204_MB.txt.mb162 3.33MB Generic XYZ sounding format
EX1204_EX03192012_2012-163_0293_20120611_201402_EX1204_MB.txt.mb162 8.21MB Generic XYZ sounding format
EX1204_EX03192012_2012-163_0294_20120611_203540_EX1204_MB.txt.mb162 8.08MB Generic XYZ sounding format
EX1204_EX03192012_2012-163_0295_20120611_205723_EX1204_MB.txt.mb162 3.38MB Generic XYZ sounding format
EX1204_EX03192012_2012-163_0296_20120611_210352_EX1204_MB.txt.mb162 2.38MB Generic XYZ sounding format
EX1204_EX03192012_2012-163_0297_20120611_211416_EX1204_MB.txt.mb162 2.97MB Generic XYZ sounding format
EX1204_EX03192012_2012-163_0298_20120611_212040_EX1204_MB.txt.mb162 3.44MB Generic XYZ sounding format
EX1204_EX03192012_2012-163_0299_20120611_213143_EX1204_MB.txt.mb162 64.84MB Generic XYZ sounding format
EX1204_EX03192012_2012-163_0300_20120611_232719_EX1204_MB.txt.mb162 5.53MB Generic XYZ sounding format
EX1204_EX03192012_2012-163_0301_20120611_234946_EX1204_MB.txt.mb162 5.54MB Generic XYZ sounding format
EX1204_EX03192012_2012-164_0302_20120612_000001_EX1204_MB.txt.mb162 7.60MB Generic XYZ sounding format
EX1204_EX03192012_2012-164_0303_20120612_002701_EX1204_MB.txt.mb162 5.01MB Generic XYZ sounding format
EX1204_EX03192012_2012-164_0304_20120612_003656_EX1204_MB.txt.mb162 6.59MB Generic XYZ sounding format
EX1204_EX03192012_2012-164_0305_20120612_005839_EX1204_MB.txt.mb162 7.99MB Generic XYZ sounding format
EX1204_EX03192012_2012-164_0306_20120612_011248_EX1204_MB.txt.mb162 10.05MB Generic XYZ sounding format
EX1204_EX03192012_2012-164_0307_20120612_014549_EX1204_MB.txt.mb162 46.94MB Generic XYZ sounding format
EX1204_EX03192012_2012-164_0308_20120612_034551_EX1204_MB.txt.mb162 1.56MB Generic XYZ sounding format
EX1204_EX03192012_2012-164_0309_20120612_040139_EX1204_MB.txt.mb162 6.52MB Generic XYZ sounding format
EX1204_EX03192012_2012-164_0310_20120612_052104_EX1204_MB.txt.mb162 1.33MB Generic XYZ sounding format
EX1204_EX03192012_2012-164_0311_20120612_053722_EX1204_MB.txt.mb162 5.55MB Generic XYZ sounding format
EX1204_EX03192012_2012-164_0312_20120612_064826_EX1204_MB.txt.mb162 1.22MB Generic XYZ sounding format
EX1204_EX03192012_2012-164_0313_20120612_070549_EX1204_MB.txt.mb162 4.17MB Generic XYZ sounding format
EX1204_EX03192012_2012-164_0314_20120612_080657_EX1204_MB.txt.mb162 9.92MB Generic XYZ sounding format
EX1204_EX03192012_2012-164_0315_20120612_094802_EX1204_MB.txt.mb162 35.91MB Generic XYZ sounding format
EX1204_EX03192012_2012-164_0316_20120612_105439_EX1204_MB.txt.mb162 8.90MB Generic XYZ sounding format
EX1204_EX03192012_2012-164_0317_20120612_112038_EX1204_MB.txt.mb162 4.17MB Generic XYZ sounding format
EX1204_EX03192012_2012-164_0318_20120612_112807_EX1204_MB.txt.mb162 8.52MB Generic XYZ sounding format
EX1204_EX03192012_2012-164_0319_20120612_115223_EX1204_MB.txt.mb162 3.08MB Generic XYZ sounding format
EX1204_EX03192012_2012-164_0320_20120612_115821_EX1204_MB.txt.mb162 6.16MB Generic XYZ sounding format
EX1204_EX03192012_2012-164_0321_20120612_121612_EX1204_MB.txt.mb162 2.99MB Generic XYZ sounding format
EX1204_EX03192012_2012-164_0322_20120612_122145_EX1204_MB.txt.mb162 8.70MB Generic XYZ sounding format
EX1204_EX03192012_2012-164_0323_20120612_124346_EX1204_MB.txt.mb162 3.14MB Generic XYZ sounding format
EX1204_EX03192012_2012-164_0324_20120612_124944_EX1204_MB.txt.mb162 6.42MB Generic XYZ sounding format
EX1204_EX03192012_2012-164_0325_20120612_130558_EX1204_MB.txt.mb162 4.09MB Generic XYZ sounding format
EX1204_EX03192012_2012-164_0326_20120612_131329_EX1204_MB.txt.mb162 6.57MB Generic XYZ sounding format
EX1204_EX03192012_2012-164_0327_20120612_132919_EX1204_MB.txt.mb162 41.71MB Generic XYZ sounding format
EX1204_EX03192012_2012-164_0328_20120612_144531_EX1204_MB.txt.mb162 7.46MB Generic XYZ sounding format
EX1204_EX03192012_2012-164_0329_20120612_151642_EX1204_MB.txt.mb162 2.19MB Generic XYZ sounding format
EX1204_EX03192012_2012-164_0330_20120612_152208_EX1204_MB.txt.mb162 10.46MB Generic XYZ sounding format
EX1204_EX03192012_2012-164_0331_20120612_155929_EX1204_MB.txt.mb162 16.65MB Generic XYZ sounding format
EX1204_EX03192012_2012-164_0332_20120612_164831_EX1204_MB.txt.mb162 3.91MB Generic XYZ sounding format
EX1204_EX03192012_2012-164_0333_20120612_170638_EX1204_MB.txt.mb162 72.20MB Generic XYZ sounding format
EX1204_EX03192012_2012-164_0334_20120612_183844_EX1204_MB.txt.mb162 159.57MB Generic XYZ sounding format
EX1204_EX03192012_2012-164_0335_20120612_203844_EX1204_MB.txt.mb162 179.10MB Generic XYZ sounding format
EX1204_EX03192012_2012-164_0336_20120612_223843_EX1204_MB.txt.mb162 170.55MB Generic XYZ sounding format
EX1204_EX03192012_2012-165_0337_20120613_003843_EX1204_MB.txt.mb162 98.13MB Generic XYZ sounding format
EX1204_EX03192012_2012-165_0338_20120613_023843_EX1204_MB.txt.mb162 105.65MB Generic XYZ sounding format
EX1204_EX03192012_2012-165_0339_20120613_043843_EX1204_MB.txt.mb162 110.69MB Generic XYZ sounding format
EX1204_EX03192012_2012-165_0340_20120613_063843_EX1204_MB.txt.mb162 121.35MB Generic XYZ sounding format
EX1204_EX03192012_2012-165_0341_20120613_083843_EX1204_MB.txt.mb162 66.39MB Generic XYZ sounding format

Products: 21

Files File Size Description
EX1204_MB_FNL_01_50m_WGS84.kml.gz 351 Bytes Keyhole Markup Language file
EX1204_MB_FNL_01_50m_WGS84.kmz.gz 4.36MB Compressed Keyhole Markup Language file
EX1204_MB_FNL_01_50m_WGS84.sd.gz 6.40MB Fledermaus surface
EX1204_MB_FNL_01_50m_WGS84.tif.gz 4.35MB GeoTIFF survey image
EX1204_MB_FNL_01_50m_WGS84.xyz.gz 8.54MB xyz grid file provided by the originator
EX1204_MB_FNL_02_50m_WGS84.kml.gz 353 Bytes Keyhole Markup Language file
EX1204_MB_FNL_02_50m_WGS84.kmz.gz 10.51MB Compressed Keyhole Markup Language file
EX1204_MB_FNL_02_50m_WGS84.sd.gz 15.18MB Fledermaus surface
EX1204_MB_FNL_02_50m_WGS84.tif.gz 10.49MB GeoTIFF survey image
EX1204_MB_FNL_02_50m_WGS84.xyz.gz 22.67MB xyz grid file provided by the originator
EX1204_MB_FNL_03_30m_WGS84.kml.gz 354 Bytes Keyhole Markup Language file
EX1204_MB_FNL_03_30m_WGS84.kmz.gz 3.86MB Compressed Keyhole Markup Language file
EX1204_MB_FNL_03_30m_WGS84.sd.gz 5.65MB Fledermaus surface
EX1204_MB_FNL_03_30m_WGS84.tif.gz 3.85MB GeoTIFF survey image
EX1204_MB_FNL_03_30m_WGS84.xyz.gz 8.42MB xyz grid file provided by the originator
EX1204_MB_FNL_04_50m_WGS84.kml.gz 352 Bytes Keyhole Markup Language file
EX1204_MB_FNL_04_50m_WGS84.kmz.gz 2.77MB Compressed Keyhole Markup Language file
EX1204_MB_FNL_04_50m_WGS84.sd.gz 4.13MB Fledermaus surface
EX1204_MB_FNL_04_50m_WGS84.tif.gz 2.77MB GeoTIFF survey image
EX1204_MB_FNL_04_50m_WGS84.xyz.gz 5.72MB xyz grid file provided by the originator
ex1204-ShipTrack.kml.gz 44.7KB Keyhole Markup Language file

Metadata Files: 9

Files File Size Description
EX1204_Multibeam.xml NCEI created ISO metadata
EX1204_Multibeam_COLLECTION_UNRESOLVED.xml 21.7KB XML metadata file
EX1204_Profile_COLLECTION_UNRESOLVED.xml 16.9KB XML metadata file
EX1204_ShipTrack_KML_UNRESOLVED.xml 18.3KB XML metadata file
EX1204_Singlebeam_COLLECTION_UNRESOLVED.xml 17.5KB XML metadata file
EX1204_SubbottomProfiler_COLLECTION_UNRESOLVED.xml 17.9KB XML metadata file
EX1204_WaterColumn_COLLECTION_UNRESOLVED.xml 17.9KB XML metadata file
v1_file_metadata.tar.gz 9.06MB File level metadata
v2_file_metadata.tar.gz 115.4KB File level metadata

Ancillary Files: 5

Files File Size Description
asvp.tar.gz 504.7KB Sound Speed Profiles (SSP or SVP)
support_files.tar.gz Supporting data
wcp_asvp.tar.gz 505.2KB Sound Speed Profiles (SSP or SVP)
wcp_xbt.tar.gz 1.45MB Expendable Bathythermograph (XBT) data
xbt.tar.gz 1.45MB Expendable Bathythermograph (XBT) data

Water Column Sonar Data

Water Column Sonar Data Available: WCSD Map Viewer